Regional Weather Roundup
Issued by NWS Sterling, VA

Home | Current Version | Previous Version | Text Only | Print | Product List | Glossary Off
Versions: 1 2 3 4 5 6 7 8 9 10 11 12 13 14 15 16 17 18 19 20 21 22 23 24 25 26 27 28

000
ASUS41 KLWX 071210
RWRLWX

REGIONAL WEATHER ROUNDUP
NATIONAL WEATHER SERVICE BALTIMORE MD/WASHINGTON DC
700 AM EST WED DEC 07 2016

Note: "FAIR" indicates few or no clouds below 12,000 feet
with no significant weather and/or obstructions to visibility.
 TC=TEMPERATURE CELSIUS

 * =Non NWS site. Station does not report precipitation (e.g. rain,
    snow, etc.), thunder, or fog.

DCZ001-MDZ009-015-VAZ040>042-051-053>054-071300-
WASHINGTON METRO

CITY           SKY/WX    TMP DP  RH WIND       PRES   REMARKS
WASHINGTON NAT MOCLDY    45  40  82 NW9       30.00R
DULLES         MOCLDY    40  37  89 N5        29.99R
ANDREWS AFB    CLOUDY    42  40  90 NW8       29.97R
FT BELVOIR     CLOUDY    43  38  83 NW6       30.00R
QUANTICO       MOCLDY    43  38  82 N6        30.01R
COLLEGE PARK*  CLOUDY    41  37  87 CALM      29.99R
LEESBURG*      PTCLDY    41  41 100 MISG      30.00R
GAITHERSBURG*  CLOUDY    39  36  87 W3        30.02R

$$

MDZ006>007-011-014-071300-
BALTIMORE METRO

CITY           SKY/WX    TMP DP  RH WIND       PRES   REMARKS
BWI AIRPORT    CLOUDY    42  41  96 NW5       29.98R
MD SCIENCE CTR   N/A     44  38  79 MISG      29.98R
MARTIN STATE   CLOUDY    43  43 100 NW5       29.99R
ANNAPOLIS      CLOUDY    45  41  86 N10       29.97R
FORT MEADE*    CLOUDY    41  39  93 CALM      30.01R

$$

MDZ012-015-019>023-071300-
MARYLAND EASTERN SHORE

CITY           SKY/WX    TMP DP  RH WIND       PRES   REMARKS
OCEAN CITY     CLOUDY    45  44  97 N14       29.90R
SALISBURY      CLOUDY    44  43  96 NW13      29.94R
BAY BRIDGE AP* CLOUDY    43  41  93 N9        29.97S FOG
CAMBRIDGE*     CLOUDY    43  41  93 NW8       29.96R
EASTON*        CLOUDY    45  41  87 N9        30.00R

$$

MDZ017>025-071300-
SOUTHERN MARYLAND

CITY           SKY/WX    TMP DP  RH WIND       PRES   REMARKS
PATUXENT RIVER MOCLDY    45  43  93 NW13      29.97R
ST INIGOES     PTCLDY    44  41  89 NW5       29.97R
LEONARDTOWN*   CLEAR     41  37  87 W3        29.99R

$$

MDZ003>005-071300-
NORTH CENTRAL MARYLAND

CITY           SKY/WX    TMP DP  RH WIND       PRES   REMARKS
FREDERICK*     CLOUDY    37  37 100 CALM      30.02R FOG
HAGERSTOWN APT CLOUDY    39  36  89 S6        29.99R
WESTMINSTER*   CLOUDY    37  37 100 CALM      29.96R FOG

$$

MDZ501>502-071300-
WESTERN MARYLAND

CITY           SKY/WX    TMP DP  RH WIND       PRES   REMARKS
OAKLAND*       CLOUDY    30  30 100 W7        29.97R
CUMBERLAND*    NOT AVBL

$$

VAZ025>031-071300-
SHENANDOAH VALLEY

CITY           SKY/WX    TMP DP  RH WIND       PRES   REMARKS
WINCHESTER*    CLOUDY    41  34  75 W10       29.98R
FRONT ROYAL*   FAIR      36  36 100 SW3       29.98R
LURAY*         FOG       36  36 100 CALM      29.99R VSB 1
NEW MARKET*    CLOUDY    35  34  96 CALM      29.99R VSB 3/4
STAUNTON*      FOG       32  32 100 CALM      30.00R VSB 1/4
WAYNESBORO*    FAIR      33  32  96 NW3       29.97R

$$

WVZ021-048>050-054>055-071300-
EASTERN WEST VIRGINIA PANHANDLE

CITY           SKY/WX    TMP DP  RH WIND       PRES   REMARKS
MARTINSBURG    FOG       37  36  96 MISG      29.99R VSB 1/2
PETERSBURG*    MOCLDY    39  35  86 CALM      30.03R

$$

VAZ036>039-050-071300-
CENTRAL FOOTHILLS

CITY           SKY/WX    TMP DP  RH WIND       PRES   REMARKS
CHARLOTTESVILL PTCLDY    39  37  92 CALM      29.97S
CULPEPER*      CLOUDY    36  36 100 CALM      30.01R FOG
ORANGE*          N/A     37  37 100 CALM      30.00S FOG
GORDONSVILLE*  FAIR      35  35 100 CALM      29.98S
WARRENTON*     FAIR      37  33  86 CALM      29.99R FOG

$$

VAZ055>057-071300-
NORTH AND CENTRAL PIEDMONT

CITY           SKY/WX    TMP DP  RH WIND       PRES   REMARKS
FREDERICKSBRG* CLOUDY    38  38 100 CALM      29.99R
STAFFORD*      CLOUDY    37  37 100 CALM      30.03R FOG

$$

NCZ024-NYZ072-PAZ021-071-VAZ022-071-071300-
OTHER REGIONAL OBSERVATIONS

CITY           SKY/WX    TMP DP  RH WIND       PRES   REMARKS
NEW YORK CITY  CLOUDY    40  37  89 VRB6      29.95S
PHILADELPHIA   CLOUDY    41  39  93 NW9       29.97R
PITTSBURGH     MOCLDY    36  31  82 W3        30.02R
ROANOKE        CLOUDY    40  33  76 NW6       30.01R
RICHMOND       CLOUDY    42  40  92 NW8       30.00R
RALEIGH        PTCLDY    38  36  92 CALM      30.01R

$$

ANZ530>537-071300-
MARINE OBSERVATIONS

STATION/POSITION TIME  TEMP    WIND        PRES
                       AIR SEA DIR/SP/G
                 (UTC) (F)     (DEG/KT/KT) (MB)
THOMAS PT LIGHT  1200   43 49  320/  9/ 10   N/A
BALT KEY BRIDGE  1142   43     310/  7/  8 1015.0R
COVE POINT       1142   44     360/ 14/ 18 1014.8R
LEWISETTA        1142   45 48  330/  8/ 12 1014.2R
SOLOMONS ISLAND  1142   44 50  330/  8/ 11   N/A
PINEY POINT      1148          350/ 12/ 14   N/A

$$





USA.gov is the U.S. government's official web portal to all federal, state and local government web resources and services.